Lone Rock, WI

2:17 AM CST on December 13, 2017 (GMT -0600)
Tri-County Regional

Weather History for KLNR - September, 2014

Change the Weather History Date:

Wednesday, September 10, 2014

  Actual Average Record
Temperature  
Mean Temperature 64 °F -  
Max Temperature 77 °F 74 °F 95 °F (2013)
Min Temperature 53 °F 50 °F 39 °F (2008)
Growing Degree Days 14 (Base 50)    
Moisture  
Dew Point 60 °F    
Average Humidity 77    
Maximum Humidity 84    
Minimum Humidity 64    
Precipitation  
Precipitation 0.28 in - - ()
Sea Level Pressure  
Sea Level Pressure 29.63 in    
Wind  
Wind Speed 8 mph (NNE)    
Max Wind Speed 21 mph    
Max Gust Speed 31 mph    
Visibility 8 miles    
Events Rain    
Averages and records for this station are not official NWS values.
T = Trace of Precipitation, MM = Missing Value Source: NWS Daily Summary

Daily Weather History Graph

Daily Weather History Graph

Search for Another Location

Airport or City:

Trip Planner

Search our weather history database for the weather conditions in past years. The results will help you decide how hot, cold, wet, or windy it might be!

Date:

Astronomy

Sep. 10, 2014 Rise Set
Actual Time 6:34 AM CDT 7:19 PM CDT
Civil Twilight 6:05 AM CDT 7:48 PM CDT
Nautical Twilight 5:31 AM CDT 8:22 PM CDT
Astronomical Twilight 4:56 AM CDT 8:57 PM CDT
Moon 8:13 PM CDT (9/10) 8:26 AM CDT (9/10)
Length of Visible Light 13h 42m
Length of Day
12h 44m
Waning Gibbous, 96% of the Moon is Illuminated
Sep 10
Waning Gibbous
Sep 15
Last Quarter
Sep 24
New
Oct 1
First Quarter
Oct 8
Full

Hourly Weather History & Observations

Time (CDT) Temp. Dew Point Humidity Pressure Visibility Wind Dir Wind Speed Gust Speed Precip Events Conditions
12:05 AM 72.0 °F 66.9 °F 84% 29.77 in 10.0 mi ESE 8.1 mph - 0.00 in Rain Light Rain
12:21 AM 72.0 °F 66.0 °F 81% 29.76 in 10.0 mi ESE 9.2 mph - 0.01 in Rain Light Rain
12:56 AM 73.0 °F 66.0 °F 79% 29.71 in 10.0 mi SE 9.2 mph - 0.01 in Rain Light Rain
1:45 AM 72.0 °F 66.0 °F 81% 29.72 in 10.0 mi SSE 3.5 mph - 0.00 in   Overcast
1:56 AM 72.0 °F 64.9 °F 78% 29.68 in 10.0 mi SE 3.5 mph - 0.00 in   Overcast
2:56 AM 71.1 °F 64.0 °F 78% 29.65 in 10.0 mi ESE 6.9 mph - N/A   Overcast
3:07 AM 71.1 °F 64.0 °F 78% 29.67 in 10.0 mi East 9.2 mph - N/A   Overcast
3:56 AM 71.1 °F 64.0 °F 78% 29.59 in 10.0 mi East 9.2 mph - N/A   Overcast
4:31 AM 71.1 °F 64.9 °F 81% 29.61 in 8.0 mi ENE 6.9 mph - 0.01 in Rain Light Rain
4:56 AM 72.0 °F 64.9 °F 78% 29.57 in 9.0 mi East 10.4 mph - 0.02 in Rain Light Rain
5:56 AM 72.0 °F 64.9 °F 78% 29.54 in 3.0 mi SE 5.8 mph - 0.07 in Rain Rain
6:28 AM 71.1 °F 66.0 °F 84% 29.54 in 2.0 mi ENE 6.9 mph - 0.09 in Rain Heavy Rain
6:37 AM 71.1 °F 66.0 °F 84% 29.53 in 4.0 mi ENE 3.5 mph - 0.10 in Rain Light Rain
6:56 AM 71.1 °F 66.0 °F 84% 29.49 in 4.0 mi East 5.8 mph - 0.10 in Rain Light Rain
7:11 AM 71.1 °F 66.0 °F 84% 29.52 in 1.8 mi East 4.6 mph - 0.02 in Rain Rain
7:25 AM 71.1 °F 66.0 °F 84% 29.51 in 2.0 mi East 4.6 mph - 0.04 in Rain Light Rain
7:37 AM 71.1 °F 66.0 °F 84% 29.51 in 4.0 mi East 4.6 mph - 0.04 in Rain Light Rain
7:56 AM 72.0 °F 66.0 °F 81% 29.48 in 10.0 mi East 4.6 mph - 0.04 in Rain Light Rain
8:10 AM 72.0 °F 66.0 °F 81% 29.51 in 1.8 mi East 3.5 mph - 0.00 in Rain Light Rain
8:34 AM 72.0 °F 66.9 °F 84% 29.49 in 1.8 mi East 4.6 mph - 0.03 in Rain Light Rain
8:38 AM 72.0 °F 66.9 °F 84% 29.49 in 3.0 mi East 4.6 mph - 0.03 in Rain Light Rain
8:56 AM 72.0 °F 66.9 °F 84% 29.47 in 7.0 mi Calm Calm - 0.03 in   Overcast
9:20 AM 73.0 °F 66.9 °F 81% 29.50 in 10.0 mi Calm Calm - N/A   Overcast
9:41 AM 73.0 °F 66.9 °F 81% 29.49 in 4.0 mi Calm Calm - N/A   Haze
9:56 AM 73.9 °F 68.0 °F 82% 29.47 in 5.0 mi Calm Calm - N/A   Haze
10:03 AM 73.9 °F 68.0 °F 82% 29.49 in 8.0 mi Calm Calm - N/A   Overcast
10:11 AM 73.9 °F 68.0 °F 82% 29.50 in 10.0 mi WSW 5.8 mph - N/A   Overcast
10:56 AM 75.0 °F 66.9 °F 76% 29.47 in 10.0 mi West 10.4 mph - N/A   Overcast
11:56 AM 75.9 °F 66.9 °F 74% 29.48 in 10.0 mi West 8.1 mph - N/A   Overcast
12:56 PM 75.9 °F 66.0 °F 71% 29.50 in 6.0 mi WNW 20.7 mph 25.3 mph 0.01 in Rain Light Rain
1:08 PM 72.0 °F 64.9 °F 78% 29.55 in 6.0 mi WNW 17.3 mph 28.8 mph 0.00 in Rain Light Rain
1:19 PM 70.0 °F 63.0 °F 78% 29.56 in 8.0 mi WNW 19.6 mph 27.6 mph 0.00 in   Overcast
1:56 PM 66.9 °F 59.0 °F 76% 29.57 in 8.0 mi WNW 19.6 mph 28.8 mph 0.00 in   Overcast
2:38 PM 66.0 °F 57.9 °F 75% 29.63 in 10.0 mi WNW 17.3 mph 24.2 mph N/A   Overcast
2:45 PM 66.0 °F 57.0 °F 73% 29.64 in 10.0 mi WNW 20.7 mph 31.1 mph N/A   Overcast
2:56 PM 64.9 °F 57.0 °F 75% 29.62 in 10.0 mi NW 20.7 mph 29.9 mph N/A   Overcast
3:56 PM 62.1 °F 53.1 °F 72% 29.66 in 10.0 mi NW 20.7 mph 29.9 mph N/A   Overcast
4:29 PM 62.1 °F 52.0 °F 70% 29.70 in 10.0 mi NW 16.1 mph 24.2 mph N/A   Overcast
4:56 PM 62.1 °F 52.0 °F 70% 29.70 in 10.0 mi NW 12.7 mph 24.2 mph N/A   Overcast
5:56 PM 60.1 °F 48.9 °F 67% 29.76 in 10.0 mi NW 10.4 mph 27.6 mph N/A   Overcast
6:56 PM 59.0 °F 48.0 °F 67% 29.79 in 10.0 mi NW 16.1 mph 27.6 mph N/A   Overcast
7:56 PM 57.0 °F 46.0 °F 67% 29.83 in 10.0 mi NW 15.0 mph 25.3 mph N/A   Overcast
8:56 PM 55.9 °F 44.1 °F 64% 29.87 in 10.0 mi NNW 15.0 mph 20.7 mph N/A   Mostly Cloudy
9:12 PM 55.9 °F 44.1 °F 64% 29.90 in 10.0 mi NNW 13.8 mph 21.9 mph N/A   Mostly Cloudy
9:29 PM 55.9 °F 45.0 °F 67% 29.90 in 10.0 mi NNW 10.4 mph 17.3 mph N/A   Mostly Cloudy
9:56 PM 55.9 °F 44.1 °F 64% 29.90 in 10.0 mi NNW 9.2 mph - N/A   Overcast
10:56 PM 54.0 °F 42.1 °F 64% 29.93 in 10.0 mi NNW 15.0 mph 19.6 mph N/A   Overcast
11:56 PM 53.1 °F 42.1 °F 66% 29.97 in 10.0 mi North 8.1 mph 21.9 mph N/A   Overcast